Regional Weather Roundup
Issued by NWS

Home | Current Version | Previous Version | Text Only | Print | Product List | Glossary Off
Versions: 1 2 3 4 5 6 7 8 9 10 11 12 13 14 15 16 17 18 19 20 21 22 23 24 25 26 27 28 29 30 31 32 33 34 35 36 37 38 39 40 41 42 43 44 45 46 47 48 49 50

000
ASUS45 KTFX 222310
RWRMT
MONTANA REGIONAL WEATHER ROUNDUP
NATIONAL WEATHER SERVICE GREAT FALLS MT
400 PM MST WED NOV 22 2017

NOTE: "FAIR" INDICATES FEW OR NO CLOUDS BELOW 12000 FEET WITH NO
SIGNIFICANT WEATHER AND/OR OBSTRUCTIONS TO VISIBILITY.

MTZ001>007-043-230000-
WEST OF THE DIVIDE

CITY           SKY/WX    TMP DP  RH WIND       PRES   REMARKS
KALISPELL      CLOUDY    51  49  92 S6        30.12S
MISSOULA       CLOUDY    45  43  93 CALM      30.19F
BUTTE          FAIR      50  37  61 SE3       30.26S
MULLAN PASS    LGT RAIN  42  40  92 VRB7      30.19S VSB 1/4
ANACONDA         N/A     52  39  62 S12G20    30.22F
DEER LODGE       N/A     50  41  71 NW8       30.22S
EUREKA           N/A     55  48  76 MISG      30.07
HAMILTON         N/A     59  46  63 S12       30.20R
LIBBY            N/A    N/A N/A N/A CALM      30.10S
RONAN            N/A     54  48  80 SE3       30.18S
$$

MTZ008-052>055-230000-
SOUTHWEST MONTANA

CITY           SKY/WX    TMP DP  RH WIND       PRES   REMARKS
BOZEMAN        MOCLDY    54  39  57 SW9       30.22R
DILLON         FAIR      57  39  51 W14       30.26F
W YELLOWSTONE  CLOUDY    41  39  93 SW12G18   30.38R
ENNIS          CLOUDY    55  39  54 S13       30.33R
$$

MTZ009-010-012-014-046-048-049-054-230000-
EAST SLOPES AND CENTRAL MONTANA

CITY           SKY/WX    TMP DP  RH WIND       PRES   REMARKS
CUT BANK       FAIR      55  42  61 W14       29.99S
GREAT FALLS    FAIR      59  41  51 SW33G46   30.01F
MALMSTROM AFB  FAIR      58  42  55 SW24      30.04R
HELENA         FAIR      62  42  47 W12G26    30.14S
BOWMANS CRNR   MOCLDY    55  42  61 SW13      30.07R
CHOTEAU          N/A     61  39  44 W12       30.04S
FAIRFIELD      FAIR      61  39  43 SW15      30.03S
POWER          FAIR      57  41  54 SW20      30.01S
RAYNESFORD     MOCLDY    60  40  48 SW23G38   30.07S
ULM            FAIR      60  43  53 SW23G30   30.07S
$$

MTZ011-013-016-021-045-047-050-051-230000-
NORTH CENTRAL MONTANA

CITY           SKY/WX    TMP DP  RH WIND       PRES   REMARKS
HAVRE          FAIR      52  41  66 W12       29.96R
LEWISTOWN      FAIR      56  40  55 SW13      30.05S
N BAR RANCH    FAIR      59  36  41 W18       30.08S
CHINOOK          N/A     54  41  62 W14       29.94S
DENTON         FAIR      58  41  54 W21G32    29.98S
GEYSER         FAIR      57  40  53 W31G41    30.02R
GRASS RANGE    FAIR      59  39  47 W14       30.00R
STANFORD       MOCLDY    58  39  49 W32G43    30.03S
WINIFRED       FAIR      57  41  54 W22G29    29.99F
$$

MTZ017>020-022>027-061-062-230000-
NORTHEAST MONTANA

CITY           SKY/WX    TMP DP  RH WIND       PRES   REMARKS
GLASGOW        FAIR      44  36  73 N8        29.94R
GLENDIVE       FAIR      56  40  55 NW8       29.97R
JORDAN           N/A     63  41  44 W14       29.96S
SIDNEY         FAIR      42  33  70 N5        29.95R
WOLF POINT     FAIR      45  34  65 N5        29.95R
MALTA          CLEAR     48  39  71 W7        29.93F
PLENTYWOOD       N/A     34  27  75 CALM      29.96R
POPLAR           N/A     46  34  61 NW5       29.96R
SCOBEY           N/A     36  22  57 CALM      29.93
$$

MTZ028>42-056>058-230000-
SOUTHCENTRAL AND SOUTHEAST MONTANA

CITY           SKY/WX    TMP DP  RH WIND       PRES   REMARKS
BAKER          FAIR      61  41  47 NW15      29.98R
BILLINGS       FAIR      57  40  52 W14       30.09S
LIVINGSTON     MOCLDY    60  41  49 W14       30.16S
MILES CITY     FAIR      62  44  51 W9        29.98S
BIG TIMBER     CLEAR     59  39  47 W24G31    30.16R
EKALAKA          N/A     59  39  47 W13       30.00
FORSYTH          N/A     66  41  39 W14       30.00S
HARLOWTON      CLOUDY    55  40  57 E6        30.12R
LAUREL           N/A     55  39  54 SW10      30.11R
ROUNDUP          N/A     62  38  41 SW18      29.97R
$$

REGIONAL REPORTS...DAKOTAS

CITY           SKY/WX    TMP DP  RH WIND       PRES   REMARKS
WILLISTON      FAIR      40  28  62 N5        29.96R
MINOT          FAIR      32  23  69 N8        29.91R WCI  25
DICKINSON      FAIR      52  37  56 NW17      29.91R
BEACH          FAIR      52  37  58 NW13      29.99R
CROSBY         FAIR      27  25  93 NW10      29.95R WCI  17
TIOGA          FAIR      34  27  75 NW12      29.94R WCI  25
WATFORD CITY   FAIR      43  34  70 W8        29.93R
BISMARCK       FAIR      56  38  50 N13       29.89R
GRAND FORKS    CLOUDY    28  19  69 S6        29.93R WCI  22
FARGO          FAIR      30  16  56 S13       29.91R WCI  20
BUFFALO SD       N/A     64  40  41 NW22G35   29.92R
RAPID CITY     FAIR      66  37  34 NW14      30.03R
$$

REGIONAL REPORTS...WYOMING/IDAHO/WASHINGTON

CITY           SKY/WX    TMP DP  RH WIND       PRES   REMARKS
GILLETTE       FAIR      57  38  48 CALM      30.11S
SHERIDAN       FAIR      60  42  51 W5        30.09R
BUFFALO WY     FAIR      58  33  39 NW6       30.15R
CODY           FAIR      58  39  49 W22G32    30.22R
YELLOWSTONE LA   N/A     38  37  97 CALM      30.41F
IDAHO FALLS    FAIR      52  44  74 VRB3      30.37S
SALMON         FAIR      44  41  89 CALM      30.32F
BOISE          FAIR      60  51  72 E6        30.24F
SPOKANE        LGT RAIN  50  50 100 E3        30.09S
$$

REGIONAL REPORTS...ALBERTA

CITY           SKY/WX    TMP DP  RH WIND       PRES   REMARKS
EDMONTON       MOCLDY    21  14  73 E3        29.74F
CALGARY        MOCLDY    52  34  50 S7        29.79F
LETHBRIDGE     PTCLDY    57  43  58 SW12G17   29.90R
MEDICINE HAT   PTCLDY    36  30  80 CALM      29.87F
$$

REGIONAL REPORTS...SASKATCHEWAN

CITY           SKY/WX    TMP DP  RH WIND       PRES   REMARKS
SWIFT CURRENT  CLEAR     27  21  80 VRB2      29.88F
REGINA         CLOUDY    21  18  86 NW9       29.96R WCI  11
SASKATOON      MOCLDY    16  10  79 SW8       29.95R WCI   5
$$



USA.gov is the U.S. government's official web portal to all federal, state and local government web resources and services.